| time (UTC) | temp F | wind direction | speed MPH | gust MPH | rain 1hr in | rain 24hr in | rain mn in | humidity % | barometer mb |
| 20260504150110 | 78 | 112 | 4.0 | 7.0 | 0.00 | 0.00 | 0.00 | 50 | 1018.3 |
| 20260504141050 | 75 | 50 | 5.0 | 10.0 | 0.00 | 0.00 | 0.00 | 53 | 1018.1 |
| 20260504100110 | 62 | 106 | 1.0 | 3.0 | 0.00 | 0.00 | 0.00 | 87 | 1016.4 |
| 20260504081057 | 64 | 111 | 1.0 | 2.0 | 0.00 | 0.00 | 0.00 | 85 | 1016.5 |
| 20260504080116 | 64 | 147 | 2.0 | 4.0 | 0.00 | 0.00 | 0.00 | 83 | 1016.5 |
| 20260504045053 | 68 | 80 | 2.0 | 3.0 | 0.00 | 0.00 | 0.00 | 72 | 1017.9 |
| 20260504044032 | 69 | 88 | 2.0 | 3.0 | 0.00 | 0.00 | 0.00 | 72 | 1018.0 |
| 20260504043051 | 69 | 77 | 2.0 | 2.0 | 0.00 | 0.00 | 0.00 | 71 | 1017.9 |
| 20260504042029 | 69 | 72 | 2.0 | 3.0 | 0.00 | 0.00 | 0.00 | 71 | 1017.9 |
| 20260504041028 | 69 | 62 | 2.0 | 4.0 | 0.00 | 0.00 | 0.00 | 71 | 1017.9 |
| 20260504040026 | 69 | 64 | 2.0 | 3.0 | 0.00 | 0.00 | 0.05 | 71 | 1018.0 |
| 20260504035025 | 69 | 65 | 2.0 | 4.0 | 0.00 | 0.00 | 0.05 | 71 | 1018.0 |
| 20260504034024 | 69 | 59 | 2.0 | 4.0 | 0.00 | 0.00 | 0.05 | 71 | 1018.1 |
| 20260504033022 | 69 | 68 | 2.0 | 3.0 | 0.00 | 0.00 | 0.05 | 71 | 1018.0 |
| 20260504032021 | 69 | 92 | 2.0 | 3.0 | 0.00 | 0.00 | 0.05 | 70 | 1018.0 |
| 20260504031020 | 69 | 79 | 1.0 | 3.0 | 0.00 | 0.00 | 0.05 | 71 | 1018.1 |
| 20260504030018 | 69 | 87 | 2.0 | 3.0 | 0.00 | 0.00 | 0.05 | 71 | 1018.0 |
| 20260504025057 | 69 | 119 | 1.0 | 5.0 | 0.00 | 0.00 | 0.05 | 71 | 1018.1 |
| 20260504024016 | 69 | 86 | 1.0 | 3.0 | 0.00 | 0.00 | 0.05 | 71 | 1017.9 |
| 20260504023135 | 69 | 136 | 2.0 | 4.0 | 0.00 | 0.00 | 0.05 | 70 | 1017.9 |
| 20260504022113 | 69 | 130 | 2.0 | 4.0 | 0.00 | 0.00 | 0.05 | 70 | 1017.8 |
| 20260504021132 | 69 | 93 | 1.0 | 3.0 | 0.00 | 0.00 | 0.05 | 70 | 1017.8 |
| 20260504020111 | 69 | 123 | 2.0 | 4.0 | 0.00 | 0.00 | 0.05 | 70 | 1017.5 |
| 20260504015149 | 69 | 104 | 2.0 | 4.0 | 0.00 | 0.00 | 0.05 | 70 | 1017.5 |
| 20260504014108 | 69 | 98 | 2.0 | 4.0 | 0.00 | 0.00 | 0.05 | 70 | 1017.5 |
| 20260504013107 | 69 | 84 | 2.0 | 4.0 | 0.00 | 0.00 | 0.05 | 70 | 1017.4 |
| 20260504012106 | 69 | 100 | 2.0 | 4.0 | 0.00 | 0.00 | 0.05 | 69 | 1017.3 |
| 20260504011104 | 69 | 96 | 1.0 | 2.0 | 0.00 | 0.00 | 0.05 | 69 | 1017.3 |
| 20260504005102 | 70 | 106 | 2.0 | 3.0 | 0.00 | 0.00 | 0.05 | 68 | 1017.0 |
| 20260504004101 | 70 | 83 | 2.0 | 5.0 | 0.00 | 0.00 | 0.05 | 68 | 1017.1 |
| 20260504003120 | 70 | 94 | 2.0 | 5.0 | 0.00 | 0.00 | 0.05 | 67 | 1017.0 |
| 20260504002118 | 71 | 80 | 3.0 | 6.0 | 0.00 | 0.00 | 0.05 | 66 | 1016.9 |
| 20260504001119 | 71 | 141 | 3.0 | 4.0 | 0.00 | 0.00 | 0.05 | 65 | 1016.7 |
| 20260504000055 | 71 | 113 | 2.0 | 6.0 | 0.00 | 0.00 | 0.05 | 65 | 1016.6 |
| 20260503235114 | 72 | 98 | 2.0 | 6.0 | 0.00 | 0.00 | 0.05 | 64 | 1016.5 |
| 20260503234053 | 72 | 127 | 2.0 | 4.0 | 0.00 | 0.00 | 0.05 | 63 | 1016.5 |
| 20260503233052 | 73 | 119 | 3.0 | 5.0 | 0.00 | 0.00 | 0.05 | 62 | 1016.5 |
| 20260503232131 | 73 | 49 | 4.0 | 9.0 | 0.00 | 0.00 | 0.05 | 61 | 1016.3 |
| 20260503231049 | 73 | 94 | 3.0 | 7.0 | 0.00 | 0.00 | 0.05 | 61 | 1016.4 |
| 20260503230048 | 74 | 83 | 2.0 | 5.0 | 0.00 | 0.00 | 0.05 | 61 | 1016.5 |
| 20260503225046 | 74 | 101 | 2.0 | 4.0 | 0.00 | 0.00 | 0.05 | 60 | 1016.4 |
| 20260503224045 | 75 | 95 | 3.0 | 6.0 | 0.00 | 0.00 | 0.05 | 61 | 1016.4 |
| 20260503223042 | 76 | 107 | 3.0 | 5.0 | 0.00 | 0.00 | 0.05 | 59 | 1016.4 |
| 20260503222040 | 77 | 102 | 3.0 | 4.0 | 0.00 | 0.00 | 0.05 | 57 | 1016.2 |
| 20260503221040 | 76 | 121 | 4.0 | 6.0 | 0.00 | 0.00 | 0.05 | 57 | 1016.2 |
| 20260503220038 | 76 | 60 | 4.0 | 7.0 | 0.00 | 0.00 | 0.05 | 58 | 1016.1 |
| 20260503215057 | 76 | 41 | 4.0 | 6.0 | 0.00 | 0.00 | 0.05 | 58 | 1016.2 |
| 20260503214036 | 76 | 44 | 4.0 | 7.0 | 0.00 | 0.00 | 0.05 | 57 | 1016.1 |
| 20260503213034 | 78 | 37 | 6.0 | 8.0 | 0.00 | 0.00 | 0.05 | 54 | 1016.1 |
| 20260503212033 | 77 | 81 | 4.0 | 6.0 | 0.00 | 0.00 | 0.05 | 56 | 1016.0 |
| 20260503211032 | 77 | 94 | 2.0 | 5.0 | 0.00 | 0.00 | 0.05 | 57 | 1016.1 |
| 20260503210031 | 77 | 49 | 3.0 | 6.0 | 0.00 | 0.00 | 0.05 | 55 | 1016.2 |
| 20260503205030 | 77 | 94 | 3.0 | 6.0 | 0.00 | 0.00 | 0.05 | 55 | 1016.1 |
| 20260503204049 | 78 | 71 | 3.0 | 6.0 | 0.00 | 0.00 | 0.05 | 54 | 1016.2 |
| 20260503203028 | 77 | 114 | 3.0 | 4.0 | 0.00 | 0.00 | 0.05 | 55 | 1016.4 |
| 20260503202026 | 79 | 102 | 3.0 | 8.0 | 0.00 | 0.00 | 0.05 | 52 | 1016.3 |
| 20260503201043 | 76 | 58 | 3.0 | 5.0 | 0.00 | 0.00 | 0.05 | 54 | 1016.5 |
| 20260503200021 | 78 | 79 | 5.0 | 9.0 | 0.00 | 0.00 | 0.05 | 53 | 1016.7 |
| 20260503195040 | 77 | 42 | 3.0 | 4.0 | 0.00 | 0.00 | 0.05 | 53 | 1016.7 |
| 20260503194018 | 78 | 69 | 2.0 | 6.0 | 0.00 | 0.00 | 0.05 | 54 | 1016.7 |
| 20260503193116 | 78 | 63 | 5.0 | 12.0 | 0.00 | 0.00 | 0.05 | 54 | 1017.0 |
| 20260503192153 | 77 | 61 | 5.0 | 7.0 | 0.00 | 0.00 | 0.05 | 54 | 1017.2 |
| 20260503191153 | 78 | 81 | 3.0 | 5.0 | 0.00 | 0.00 | 0.05 | 54 | 1017.3 |
| 20260503190110 | 76 | 74 | 3.0 | 6.0 | 0.00 | 0.00 | 0.05 | 56 | 1017.7 |
| 20260503185108 | 77 | 86 | 4.0 | 8.0 | 0.00 | 0.00 | 0.05 | 55 | 1017.6 |
| 20260503184107 | 77 | 31 | 5.0 | 9.0 | 0.00 | 0.00 | 0.05 | 55 | 1017.8 |
| 20260503183105 | 78 | 66 | 2.0 | 6.0 | 0.00 | 0.00 | 0.05 | 55 | 1017.9 |
| 20260503182104 | 78 | 70 | 4.0 | 11.0 | 0.00 | 0.00 | 0.05 | 56 | 1018.0 |
| 20260503181101 | 76 | 74 | 3.0 | 6.0 | 0.00 | 0.00 | 0.05 | 58 | 1018.2 |
| 20260503180100 | 76 | 80 | 4.0 | 6.0 | 0.00 | 0.00 | 0.05 | 60 | 1018.2 |
| 20260503175059 | 75 | 88 | 3.0 | 6.0 | 0.00 | 0.00 | 0.05 | 61 | 1018.4 |
| 20260503174057 | 75 | 62 | 4.0 | 7.0 | 0.00 | 0.00 | 0.05 | 61 | 1018.4 |
| 20260503173058 | 75 | 105 | 4.0 | 8.0 | 0.00 | 0.00 | 0.05 | 62 | 1018.5 |
| 20260503172053 | 74 | 44 | 4.0 | 7.0 | 0.00 | 0.00 | 0.05 | 63 | 1018.5 |
| 20260503171051 | 75 | 65 | 5.0 | 7.0 | 0.00 | 0.00 | 0.05 | 62 | 1018.6 |